User: anonymous   Login
Location: Unspecified
(0.0000°N, 0.0000°E)
Time: 18:59:33
(UTC+00:00)
Language:

STARLINK-11388 [DTC] - Orbit

View from above orbital plane
View from above orbital plane
View from above satellite
View from above satellite

Ground track
Ground track

The orbit is defined by the following mean orbital elements,

1 62092U          26145.44318733 +.00000000 +00000-0 +15903-2 0 00003
2 62092  42.9971 300.5049 0000058 277.3084  82.7777 15.70973249    03
Epoch (UTC): 25 May 2026 10:38:11
Eccentricity: 0.0000058
inclination: 42.9971°
perigee height: 356 km
apogee height: 356 km
right ascension of ascending node: 300.5049°
argument of perigee: 277.3084°
revolutions per day: 15.70973249
mean anomaly at epoch: 82.7777°

The dashed part of the orbit path shows where the satellite is in the earth's shadow,  

DLR